Location: Chełm
(51.1339°N, 23.4725°E)
Time: 07:08:20
(UTC+01:00)

ISS - Pass Details

Date: 02 February 2019
Orbit: 403 x 411 km, 51.6° (Epoch: 17 February)

Event Time Altitude Azimuth Distance (km) Brightness Sun altitude
Rises 18:05:36 0° 280° (W) 2,337 1.5 -17.0°
Reaches altitude 10° 18:07:41 10° 280° (W) 1,477 0.2 -17.3°
Maximum altitude 18:11:00 87° 192° (SSW) 416 -3.9 -17.8°
Enters shadow 18:11:34 59° 106° (ESE) 481 -3.8 -17.9°
